Wind_Speed
16 15 17 19 18 22 22 23 24 26 26 26 28 29 33 34 31 30 27 21 17 12 10 9 8 12 5 7 10 8 5 8 12 11 13 11 12 12 13 9 12 17 16 14 15 14 16
18 18 19 21 24 23 25 27 26 29 30 31 30 31 31 33 33 30 25 23 18 14 10 7 4 9 6 14 9 8 8 10 13 15 15 16 9 12 12 13 16 2 12 12 10 14 16
17 20 22 24 25 23 30 33 30 32 32 34 30 30 31 34 31 30 24 26 20 17 11 8 7 5 12 18 10 9 9 15 16 20 18 19 20 14 7 13 18 13 16 16 17 17 15
18 20 21 24 25 27 33 37 34 34 36 32 30 30 30 31 31 30 25 27 22 19 11 8 6 3 10 11 14 23 22 18 14 17 19 12 16 17 13 8 7 11 14 14 5 14 13
20 20 23 26 27 29 35 37 35 36 37 34 31 28 26 28 30 33 28 26 22 15 10 5 3 5 12 5 11 18 22 17 21 12 15 8 13 16 13 16 15 16 15 16 10 12 6
20 22 24 27 27 30 36 35 36 37 38 36 29 24 22 26 31 33 30 25 13 7 4 4 6 4 9 11 6 4 6 18 13 14 11 13 8 12 16 16 19 19 19 16 14 8 11
21 23 22 23 24 31 35 34 36 41 40 29 20 22 21 26 32 39 31 13 5 3 9 12 9 9 5 5 6 11 7 14 15 14 20 18 12 24 24 22 21 10 15 14 8 8 6
23 22 21 22 26 30 32 33 35 36 22 18 20 21 20 30 41 31 28 6 6 2 7 19 23 24 26 6 7 12 16 11 13 19 19 14 25 25 18 18 20 22 19 19 15 16 11
20 19 20 24 27 28 30 33 33 27 20 19 18 17 20 35 36 32 24 10 9 7 1 13 19 18 21 21 21 22 21 13 15 16 18 20 19 10 21 18 19 21 21 16 15 5 12
20 21 24 22 24 23 27 31 28 17 14 13 13 16 31 43 24 21 9 17 14 9 4 8 7 7 10 9 11 28 25 15 10 21 17 10 19 19 14 23 22 22 16 15 12 9 10
21 22 21 19 18 18 19 19 19 11 9 9 12 28 39 34 22 11 12 21 14 3 7 2 6 3 8 14 8 11 32 17 20 13 14 16 21 24 19 16 17 19 7 14 15 13 13
21 20 18 12 8 8 6 6 8 6 14 16 36 45 34 22 13 15 29 20 3 5 9 6 6 9 11 17 9 3 17 11 3 1 6 14 1 5 15 17 16 9 6 10 10 11 13
22 22 17 11 4 9 13 10 18 28 31 32 29 26 21 16 11 28 35 8 2 6 3 7 5 8 13 8 8 9 17 13 9 6 10 13 19 18 13 14 14 21 12 6 8 8 12
23 24 20 17 13 9 10 12 16 19 21 20 18 15 10 22 33 39 13 2 9 1 7 1 3 6 8 8 9 14 18 16 18 14 6 9 7 19 9 15 10 22 19 9 10 11 10
25 24 23 20 18 14 9 9 10 13 15 16 16 13 12 24 29 22 5 4 2 6 2 4 7 8 11 9 7 15 17 18 15 9 8 13 8 4 4 5 6 15 19 18 9 5 6
24 25 24 22 18 13 12 13 14 15 18 19 13 11 6 18 20 12 3 4 7 4 2 4 9 2 6 10 8 11 12 3 7 1 7 1 5 4 5 5 4 6 8 7 8 12 15
24 24 28 26 23 18 15 16 17 18 19 15 9 5 9 14 9 1 5 5 5 4 2 3 4 4 2 4 6 3 7 5 1 3 5 7 6 5 2 2 2 4 5 4 4 5 7
26 30 29 30 25 23 21 20 19 19 17 10 5 4 12 17 3 2 8 5 1 4 5 3 2 3 4 4 5 6 5 3 3 5 6 5 2 4 2 3 2 3 2 3 5 8 4
28 27 26 32 29 27 24 22 20 21 20 9 4 3 6 5 6 8 6 7 8 6 8 6 4 3 1 6 2 10 4 3 1 5 5 2 2 3 2 1 1 2 1 2 2 1 9
22 21 20 32 30 28 26 23 23 23 23 6 4 5 3 3 1 5 10 11 10 9 6 4 4 3 3 6 2 10 10 4 4 4 6 1 3 5 5 3 4 4 7 4 2 3 4
22 20 19 30 26 27 25 23 22 24 26 7 4 4 7 8 10 10 9 10 14 8 6 7 6 5 4 5 4 5 6 10 5 0 3 1 3 2 4 4 2 2 6 7 10 10 6
16 22 19 34 27 30 28 25 22 22 19 6 4 4 5 3 12 14 9 9 13 9 8 9 4 6 10 4 3 8 10 7 5 3 3 2 3 1 2 3 4 8 9 10 11 12 14
28 28 27 28 32 31 27 24 22 22 17 6 3 2 3 9 13 11 11 9 14 10 2 4 6 6 9 8 9 9 8 6 6 6 4 3 4 3 2 2 1 7 5 10 9 7 7
12 36 37 33 33 28 25 23 23 22 22 4 2 2 3 6 12 12 13 12 12 11 6 8 6 6 5 9 10 9 9 8 6 6 3 6 6 3 3 3 4 6 5 7 3 9 5
13 30 32 32 29 26 25 22 20 21 21 11 3 4 2 4 7 10 11 9 9 10 10 8 6 4 6 6 6 7 5 5 5 5 5 4 3 3 3 5 4 4 4 3 3 2 6
19 29 29 30 25 24 24 22 19 20 18 16 10 6 2 2 3 5 9 13 10 7 6 5 5 2 2 2 2 4 4 5 6 5 4 6 2 3 3 3 4 5 7 4 1 6 5
25 28 30 26 26 24 22 20 18 18 20 16 6 10 2 3 3 3 5 7 4 3 4 5 5 4 1 3 2 2 3 0 6 6 6 5 2 5 5 3 5 1 9 3 6 5 6
30 29 27 26 23 21 20 17 16 18 22 13 3 8 1 3 5 4 2 4 4 4 5 5 5 2 3 3 3 3 3 2 4 2 1 4 5 4 3 3 2 11 1 4 5 6 5
29 27 26 23 22 20 17 15 15 16 17 10 3 5 5 3 5 7 11 9 5 3 5 3 2 3 2 2 2 3 3 3 4 4 2 3 3 2 4 4 5 7 6 4 4 6 7
Wind_Direction
291 294 295 296 292 294 295 294 289 287 287 283 274 267 267 267 270 272 265 251 245 247 265 289 313 318 333 238 246 297 261 189 181 186 204 200 210 225 234 233 233 240 253 251 249 247 250
292 294 295 294 294 295 296 297 297 297 289 289 294 267 261 260 262 263 254 239 237 242 249 270 307 312 272 255 256 251 227 214 220 213 221 225 232 237 276 241 233 282 249 251 248 239 244
292 291 292 295 293 291 293 297 296 299 296 291 285 277 261 254 251 250 247 233 228 235 233 260 298 299 257 256 255 227 222 226 238 237 244 240 243 228 238 246 232 256 253 244 243 245 239
296 296 296 294 294 292 293 297 301 297 297 286 283 277 266 249 245 244 232 222 223 231 239 261 281 252 260 253 254 244 238 236 240 243 243 243 221 237 243 253 225 233 240 249 193 224 226
294 298 298 296 292 294 293 299 299 298 294 283 281 270 262 241 236 229 217 218 222 233 259 249 231 196 266 230 232 252 233 231 225 227 229 247 205 214 211 237 242 221 251 221 230 206 190
296 297 294 294 296 294 298 299 300 299 289 280 274 260 259 235 225 217 204 202 196 228 213 203 236 226 240 239 202 217 210 212 216 204 213 223 218 219 220 218 231 237 230 249 235 179 226
295 296 297 295 295 303 303 302 304 297 289 278 254 260 254 225 209 184 180 126 130 222 216 208 205 241 275 277 251 223 191 173 202 194 208 203 212 223 226 225 239 285 267 248 205 219 261
295 293 293 296 302 303 303 307 306 296 277 268 261 255 227 212 190 204 184 193 187 26 263 228 252 251 259 275 269 223 168 176 190 213 218 210 231 240 232 240 238 247 249 254 265 259 245
296 296 300 301 298 298 302 308 305 283 270 265 254 233 206 191 189 172 184 179 143 133 297 271 232 247 242 223 243 234 199 194 193 206 213 217 248 236 250 238 231 237 244 252 254 212 234
290 290 294 293 296 302 299 305 308 265 257 250 224 202 183 159 150 157 150 145 136 133 240 258 202 245 204 202 259 227 212 199 197 213 197 233 247 290 272 239 227 237 221 244 250 249 252
278 287 286 285 293 298 300 305 325 250 226 209 203 193 176 179 144 170 164 152 138 242 276 165 165 113 165 186 334 196 205 210 215 199 180 206 200 195 234 234 223 247 229 233 241 250 262
267 277 276 275 277 291 328 314 33 97 204 179 149 144 145 128 118 144 151 140 121 172 230 193 166 177 177 216 241 26 186 217 166 192 258 238 272 181 216 235 252 260 238 235 239 240 244
264 265 255 233 166 113 96 103 109 99 102 114 120 130 136 124 131 142 139 122 144 231 154 182 214 195 213 208 224 209 180 177 173 184 207 213 220 218 208 213 204 215 216 212 226 217 242
265 259 240 218 206 171 137 118 117 112 107 112 114 121 105 131 140 145 130 99 221 281 219 14 290 246 227 209 227 206 185 193 220 236 222 209 211 212 187 231 203 197 203 218 215 227 231
262 254 238 211 212 205 181 158 147 137 138 142 140 110 115 143 148 153 156 195 213 199 254 274 285 285 216 211 237 202 199 207 198 218 227 195 203 167 187 209 229 193 217 241 279 271 273
263 252 232 201 187 187 176 166 159 148 141 134 123 116 128 158 155 171 218 201 186 201 291 259 226 261 257 205 202 188 177 143 176 238 290 60 139 190 143 193 112 255 169 201 220 245 240
261 258 225 202 188 183 186 174 164 158 149 141 137 128 153 174 141 173 218 192 179 224 284 297 203 166 237 291 244 145 182 126 87 97 67 32 269 151 217 335 61 168 191 233 281 276 270
262 256 243 199 190 181 180 176 171 169 163 152 169 139 158 164 167 211 211 197 183 203 226 205 116 168 145 276 190 137 185 49 9 47 131 206 272 145 113 23 289 283 279 271 252 221 255
257 251 253 202 190 183 182 181 182 180 172 164 127 120 158 181 194 201 211 204 199 223 206 205 149 205 194 203 157 129 150 315 192 179 214 198 140 186 217 200 35 241 127 131 139 243 254
257 253 243 206 191 185 182 185 187 185 182 199 178 147 153 208 222 223 195 201 199 214 196 202 156 123 251 166 227 151 148 149 157 142 55 235 177 268 252 57 102 173 172 165 167 224 286
252 258 264 197 195 187 180 177 182 185 184 194 197 187 170 191 200 207 200 202 195 176 192 196 155 174 203 176 124 140 134 130 103 51 66 31 181 183 86 109 136 192 213 221 238 248 253
254 242 233 209 192 184 176 172 177 182 180 222 166 175 179 202 182 195 182 213 198 173 178 184 208 201 176 215 224 176 155 171 166 120 102 3 129 155 236 243 257 265 255 251 250 260 265
268 213 190 198 186 172 172 173 173 178 173 206 199 215 227 144 186 187 198 220 199 167 139 193 236 159 139 106 90 91 90 94 120 142 125 135 139 164 195 140 255 254 278 263 243 250 288
230 183 182 187 166 168 171 173 176 185 191 234 215 236 200 171 180 196 190 205 180 201 166 134 135 141 110 119 108 93 83 79 84 75 109 154 154 171 147 181 224 78 41 48 359 307 342
201 167 166 164 163 166 168 174 180 191 204 221 246 258 243 149 182 176 183 147 132 133 121 118 73 69 154 154 132 126 122 137 98 74 181 187 159 147 209 213 86 159 41 359 352 306 22
177 164 164 156 159 169 171 176 184 194 201 210 246 241 277 171 130 164 151 162 150 145 121 102 83 106 157 136 167 184 172 142 159 129 99 171 224 233 177 249 218 76 4 338 207 236 23
174 164 152 157 166 168 167 181 186 193 192 204 227 197 228 106 85 169 142 151 137 133 135 138 150 151 238 148 146 157 140 305 152 169 166 142 163 214 202 254 105 5 325 347 227 46 16
161 153 156 161 164 164 166 173 178 180 183 195 169 186 230 106 69 28 53 129 127 172 164 137 161 171 138 160 177 135 177 108 129 39 105 181 188 188 193 231 171 358 151 315 9 63 74
159 156 161 160 162 162 160 162 165 171 177 179 138 164 134 65 92 72 69 44 29 39 134 138 71 105 110 131 168 138 144 156 150 131 125 182 330 69 353 59 77 45 65 35 38 89 84
Height
794 792 792 793 789 790 789 789 788 788 788 787 786 786 787 790 791 792 793 796 798 798 798 798 795 798 798 792 782 778 777 777 777 778 777 774 773 769 767 763 761 767 755 753 754 754 752
790 789 788 787 788 783 785 785 782 782 781 781 777 778 779 783 785 787 790 791 794 794 794 796 792 798 798 787 775 775 776 778 779 777 773 771 767 766 763 761 761 750 754 752 750 749 747
784 785 783 782 783 778 781 780 775 775 773 773 771 770 771 776 779 781 785 788 789 792 789 794 796 795 794 775 772 772 770 772 774 775 771 769 767 768 758 762 751 754 757 747 745 745 742
780 780 779 778 777 774 773 773 769 767 765 764 763 762 763 769 774 776 779 783 786 789 787 791 793 790 777 768 767 764 765 766 768 771 771 767 766 763 761 753 756 755 750 747 727 734 735
777 774 774 774 771 770 767 764 761 758 757 755 755 755 756 762 767 771 773 780 783 786 789 789 791 789 768 759 759 756 761 759 763 766 770 769 764 759 759 761 752 744 739 734 730 730 730
773 771 770 768 766 763 761 758 752 749 747 745 744 748 749 754 762 766 769 777 781 785 786 790 789 790 762 750 750 752 753 754 757 758 767 768 763 757 752 749 742 737 734 730 732 724 733
769 767 764 763 759 756 754 749 745 740 737 737 737 740 743 747 754 758 769 778 786 787 783 765 761 750 744 750 750 746 751 753 754 752 755 760 762 738 737 738 737 738 731 729 724 725 738
765 762 759 757 754 750 745 741 737 733 730 731 732 732 735 740 746 753 762 767 764 767 761 760 756 748 750 753 746 743 749 746 748 744 751 755 749 735 733 736 742 740 738 733 727 727 731
760 757 755 751 749 744 740 735 729 727 724 726 725 728 730 735 743 752 757 759 762 767 771 743 741 739 741 747 735 732 739 731 735 744 745 756 743 735 736 743 748 740 736 732 732 724 726
755 753 751 747 745 740 735 729 722 718 717 721 721 725 728 734 748 749 757 760 763 766 770 732 735 730 732 738 734 726 729 729 736 738 745 757 744 747 740 739 737 733 728 731 731 732 723
749 751 746 744 741 737 731 723 716 714 714 715 720 721 726 731 737 751 751 759 764 769 746 716 727 726 725 729 717 715 720 726 724 729 740 731 736 742 754 727 728 731 725 732 726 725 723
744 744 743 740 738 734 728 720 716 711 711 713 718 723 725 733 739 745 750 758 767 760 738 717 719 721 725 725 718 714 720 728 731 747 750 737 740 743 744 744 736 731 734 727 725 721 726
737 738 738 737 736 731 728 721 719 716 715 718 721 728 727 730 739 745 749 760 760 734 719 709 710 716 714 710 715 713 724 732 737 738 737 731 733 722 718 723 726 739 734 740 742 733 718
731 732 731 731 732 730 727 726 724 722 722 725 727 732 734 730 740 747 750 755 735 722 709 707 709 704 708 701 706 707 715 726 725 717 714 725 729 715 709 714 718 725 723 732 728 710 700
724 724 725 724 726 727 725 724 727 723 723 726 730 734 740 742 741 750 747 736 724 719 717 715 710 708 699 699 696 698 700 706 709 710 713 712 718 716 715 715 711 713 716 704 710 706 707
716 718 720 719 720 723 723 723 725 725 724 727 732 737 743 747 745 750 743 724 723 719 718 717 712 731 702 694 695 695 698 710 717 718 714 712 720 718 719 717 715 709 702 721 714 718 709
709 711 713 714 714 717 722 722 724 726 726 727 730 729 745 747 748 749 731 717 720 718 718 719 715 724 724 710 697 716 706 721 724 725 716 718 718 721 720 719 712 714 712 716 710 710 708
702 703 701 706 710 712 717 720 722 725 727 729 728 730 741 746 746 743 727 721 722 718 719 720 723 722 728 719 717 720 720 717 728 724 724 727 718 718 724 728 727 723 718 715 716 712 713
694 697 699 699 703 707 711 717 720 722 724 727 728 735 741 743 731 726 723 720 720 719 717 720 722 727 720 721 717 724 734 737 733 734 732 723 719 727 725 728 729 727 730 731 731 731 722
687 690 692 693 699 702 706 713 716 719 724 726 722 728 738 740 737 724 722 718 720 717 716 716 717 727 723 722 715 719 727 733 731 730 732 726 722 717 709 718 723 735 735 734 739 736 722
680 682 687 686 693 696 702 707 713 717 722 724 719 714 711 723 727 724 719 712 713 715 715 715 720 728 732 723 721 723 727 731 734 736 732 729 725 730 732 734 734 734 734 734 735 731 739
675 679 680 685 689 694 699 704 710 714 719 721 717 709 714 706 714 720 719 710 706 711 712 715 718 716 720 726 722 725 725 724 726 734 733 737 737 736 735 735 737 737 731 731 732 731 731
665 667 671 679 684 691 697 702 707 712 717 715 712 713 705 708 711 716 708 705 704 709 717 718 715 718 720 728 726 729 729 730 730 732 738 738 741 742 734 741 741 737 731 727 727 728 730
651 653 664 675 681 689 695 700 704 710 713 712 711 710 706 702 702 704 702 702 704 706 713 718 718 720 733 731 731 732 734 735 735 739 737 742 742 745 738 745 743 744 747 748 752 745 753
653 657 664 674 681 688 694 698 703 707 711 714 713 711 704 700 695 701 701 703 708 713 717 720 726 731 731 729 726 729 735 736 744 744 743 740 740 744 742 732 732 754 759 766 763 753 769
654 660 668 674 681 688 693 697 701 705 708 712 712 712 709 702 702 701 704 704 707 711 720 728 732 734 732 729 727 725 728 721 735 743 745 746 743 741 743 741 733 755 760 761 770 754 773
657 663 669 676 683 687 691 695 699 703 706 709 710 709 708 708 712 709 703 707 712 713 715 725 729 731 732 730 730 727 728 727 729 733 744 749 753 745 739 736 749 770 763 765 755 763 776
659 665 672 678 683 687 690 694 697 701 704 707 706 706 708 708 715 715 714 713 715 713 714 728 728 730 729 725 722 734 727 730 737 753 742 739 741 740 735 742 742 768 760 761 778 779 782
662 668 674 679 683 687 691 694 697 700 702 704 706 706 708 709 718 721 721 721 721 719 719 727 726 728 730 725 726 728 730 736 733 738 752 749 756 745 757 759 775 778 781 783 783 782 786